sat.trackr.live / text

‹ back to catalog

STARLINK-32675

NORAD 62208 · 2024-229S

PAYLOAD ACTIVE UNKNOWN

§ Identity

Operator
Country
US
Launch date
2024-12-04
Launch site
AFETR
Launch vehicle
Mass (kg)
RCS (m²)

Purposes: comms

External: N2YO · Heavens-Above · Gunter

§ Orbital elements

Epoch: 2026-05-25T04:53:13.365888Z

Period
94.27 min
Inclination
43.0007°
Eccentricity
0.0001565
Mean motion
15.27606386 rev/d
Perigee alt
481.9 km
Apogee alt
484.0 km
Semi-major
6,861.1 km
B*
5.2884e-4
RAAN
198.5659°
Arg perigee
270.2485°
Mean anomaly
89.8187°
Rev number
8,226

§ Raw data

STARLINK-326751 62208U 24229S   26145.20362692  .00014330  00000+0  52884-3 0  99952 62208  43.0007 198.5659 0001565 270.2485  89.8187 15.27606386 82265

JSON: /api/v1/satellites/62208 · /tle

For live sub-satellite position, see the globe view (requires WebGL).

§ Visibility from observer

Set your observer location to see the next 7 days of passes ≥ 10°. The values pass through the URL so the page stays shareable.

No JS? Fill the form by hand. The geolocation button needs JavaScript.